Location: ??????
(38.5153°N, 23.0340°E)
Time: 13:28:56
(UTC+00:00)

Cosmos 2333 Rocket - Pass Details

Date: 13 December 2025
Orbit: 838 x 865 km, 70.8° (Epoch: 17 January)

Event Time Altitude Azimuth Distance (km) Brightness Sun altitude
Rises 16:40:30 0° 169° (S) 3,407 5.4 -17.6°
Reaches altitude 10° 16:43:18 10° 157° (SSE) 2,480 4.6 -18.1°
Enters shadow 16:47:29 26° 110° (ESE) 1,622 3.2 -18.9°
